User: anonymous   Login
Location: Unspecified
(0.0000°N, 0.0000°E)
Time: 19:18:16
(UTC+00:00)
Language:

STARLINK-5935 - Orbit

View from above orbital plane
View from above orbital plane
View from above satellite
View from above satellite

Ground track
Ground track

The orbit is defined by the following mean orbital elements,

1 56453U          26145.46741774 +.00000000 +00000-0 +57182-4 0 00001
2 56453  69.9985 310.9902 0002387 271.2166  88.8720 14.98331003    05
Epoch (UTC): 25 May 2026 11:13:04
Eccentricity: 0.0002387
inclination: 69.9985°
perigee height: 570 km
apogee height: 574 km
right ascension of ascending node: 310.9902°
argument of perigee: 271.2166°
revolutions per day: 14.98331003
mean anomaly at epoch: 88.8720°

The dashed part of the orbit path shows where the satellite is in the earth's shadow,  

DLR